[[{"header":{"parameterUnit":"m.s-1","parameterCategory":1,"la1":30.2991,"la2":30.254,"lo1":-89.0895,"lo2":-89.0444,"dy":0.0017,"dx":0.0017,"nx":28,"ny":28,"refTime":"2024-04-13T03:00:00:Z","depth":0,"parameterNumber":2,"parameterNumberName":"U-component_of_WINDS"},"data":[0,0,0,0,0,0,0,0,0,0,0,0,0,0,0,0,0,0,0,0,0,0,0,0,0,0,0,0,0,0,0,0,0,0,0,0,0,0,0,0,0,0,0,0,0,0,0,0,0,0,0,0,0,0,0,0,0,0,1.0667,1.0667,0,1.0684,1.0685,1.0685,1.0693,1.0693,1.0693,1.0693,1.0712,1.0712,1.0713,0,0,0,0,0,0,0,0,0,0,0,0,0,1.0643,1.0643,1.0667,1.0667,1.0667,1.0684,1.0685,1.0685,1.0693,1.0693,1.0693,1.0693,1.0712,1.0712,1.0713,0,0,0,0,0,0,0,0,0,0,0,0,0,1.0656,1.0643,1.0667,1.0673,1.0674,1.0684,1.0685,1.0685,1.0693,1.0693,1.0693,1.0693,1.0711,1.0712,1.0713,1.0718,0,0,1.0715,1.0716,0,0,0,0,0,0,0,0,1.0655,1.0657,1.0672,1.0673,1.0674,1.0686,1.0683,1.0696,1.0693,1.0686,1.0693,1.0693,1.0703,1.0705,1.0708,1.0719,1.072,1.0715,1.0716,1.0716,1.0716,0,0,0,0,0,0,0,1.0654,1.0656,1.0674,1.0672,1.0673,1.0676,1.0678,1.0686,1.0695,1.0686,1.0687,1.0689,1.0704,1.0707,1.0709,1.072,1.0715,1.0716,1.0717,1.0717,1.0739,1.0739,0,0,0,0,0,0,1.0652,1.0655,1.0673,1.0674,1.0664,1.0677,1.0679,1.0682,1.0694,1.0696,1.0689,1.0689,1.0706,1.0708,1.0709,1.0718,1.0716,1.0717,1.0717,1.0739,1.0739,1.0739,0,0,0,0,0,0,1.0652,1.0654,1.0673,1.0665,1.0668,1.0677,1.0681,1.0683,1.0686,1.0696,1.0698,1.0691,1.0706,1.0708,1.0716,1.0719,1.0717,1.0718,1.0739,1.0739,1.0739,1.0734,0,0,0,0,0,0,1.0651,1.0653,1.0655,1.0665,1.0668,1.0678,1.0681,1.0683,1.0687,1.0688,1.0699,1.07,1.0706,1.0715,1.0717,1.072,1.0719,1.0739,1.0739,1.0739,1.0734,1.0734,1.0734,0,0,0,0,0,1.065,1.0653,1.0655,1.0657,1.067,1.0679,1.068,1.0687,1.0687,1.069,1.0696,1.07,1.0718,1.0716,1.0718,1.0721,1.0739,1.0739,1.0739,1.0734,1.0734,1.0734,0,0,0,0,0,0,1.0643,1.0654,1.0657,1.0663,1.067,1.068,1.0683,1.0686,1.0693,1.0694,1.0702,1.0704,1.0712,1.0717,1.0715,1.0728,1.0729,1.0729,1.0724,1.0724,1.0724,1.0723,1.0719,0,0,0,0,0,1.0642,1.0647,1.0657,1.0661,1.0665,1.0673,1.0677,1.0681,1.0689,1.0692,1.07,1.0707,1.0715,1.072,1.0727,1.0735,1.0738,1.0738,1.0738,1.0738,1.0738,1.0745,1.0745,1.074,1.074,1.074,0,0,1.064,1.0647,1.0649,1.066,1.0666,1.0672,1.0675,1.0681,1.0687,1.0693,1.0702,1.0707,1.0717,1.0725,1.0729,1.073,1.0741,1.0738,1.0738,1.0739,1.0745,1.0745,1.0746,1.074,1.074,1.074,0,0,1.0639,1.0645,1.0649,1.0656,1.0665,1.067,1.0672,1.0682,1.0686,1.0694,1.07,1.0707,1.0719,1.0726,1.0731,1.0736,1.074,1.0738,1.0738,1.0743,1.0744,1.0744,1.0747,1.0748,1.0738,1.0738,1.0738,0,1.0636,1.0645,1.0651,1.0658,1.0663,1.0669,1.0675,1.0681,1.0692,1.0695,1.0696,1.0713,1.072,1.0731,1.0732,1.0735,1.0738,1.0737,1.0743,1.0744,1.0744,1.0747,1.0748,1.0738,1.0738,1.0738,1.0738,0,1.0641,1.0647,1.065,1.066,1.0666,1.0671,1.068,1.0685,1.069,1.0696,1.0705,1.0714,1.0724,1.0727,1.0731,1.0739,1.0739,1.0741,1.0742,1.0744,1.0747,1.0748,1.0738,1.0738,1.0738,1.0738,0,0,1.0635,1.065,1.0651,1.0657,1.0668,1.0673,1.068,1.069,1.0694,1.0702,1.0709,1.0721,1.0723,1.0729,1.0735,1.074,1.0744,1.0741,1.0742,1.0742,1.0755,1.0753,1.0754,1.0747,1.0747,1.0747,1.0754,0,1.0637,1.0648,1.0655,1.0665,1.0671,1.0679,1.0685,1.0693,1.07,1.0707,1.0714,1.0723,1.0725,1.0729,1.0734,1.0742,1.0747,1.0742,1.0755,1.0755,1.0752,1.0756,1.0754,1.076,1.0755,1.0756,1.0756,0,1.064,1.0648,1.0657,1.0669,1.0672,1.0678,1.0688,1.0695,1.0705,1.0709,1.0717,1.0723,1.0732,1.0732,1.0746,1.0742,1.0748,1.0753,1.0754,1.0755,1.0755,1.0758,1.0762,1.0763,1.0757,1.0757,1.0757,0,1.0636,1.0649,1.0657,1.0661,1.0675,1.0679,1.0685,1.0695,1.0701,1.071,1.0715,1.0725,1.0731,1.074,1.0749,1.0748,1.0762,1.0763,1.0767,1.0767,1.0769,1.0769,1.0775,1.0772,1.0772,1.0772,1.0772,0,1.0637,1.0643,1.0655,1.066,1.0668,1.0676,1.0684,1.0691,1.07,1.0708,1.0715,1.0722,1.0733,1.0742,1.0749,1.076,1.0763,1.0768,1.077,1.0767,1.0767,1.0771,1.0771,1.0772,1.0772,1.0772,1.0772,0,1.0633,1.0641,1.0651,1.0663,1.0667,1.0672,1.0683,1.0689,1.0697,1.0706,1.0709,1.0721,1.0732,1.0742,1.0756,1.0762,1.0773,1.0775,1.0769,1.077,1.0774,1.0774,1.0783,1.0786,1.0781,1.0781,1.0781,0,1.0633,1.0638,1.0651,1.0657,1.0663,1.0671,1.0677,1.0687,1.0693,1.0706,1.0711,1.0722,1.0732,1.075,1.076,1.0772,1.0775,1.0778,1.0777,1.0775,1.0777,1.0776,1.0778,1.0778,1.0778,1.0778,1.0778,0,1.0633,1.0637,1.0645,1.0656,1.0663,1.0672,1.0681,1.0685,1.0697,1.0704,1.0715,1.0723,1.0738,1.075,1.0764,1.0771,1.0777,1.0778,1.078,1.0777,1.0774,1.0777,1.077,1.0778,1.0778,1.0778,1.0778,1.0778,1.0632,1.0637,1.0647,1.0657,1.0665,1.0674,1.068,1.0689,1.0698,1.0711,1.0716,1.0728,1.0741,1.0759,1.0767,1.0777,1.0779,1.0781,1.0781,1.0782,1.0782,1.0772,1.078,1.078,1.078,1.078,1.078,0,1.0632,1.064,1.0649,1.0661,1.0669,1.0674,1.0684,1.0691,1.0701,1.0712,1.0721,1.0736,1.0748,1.076,1.0773,1.0779,1.0783,1.0783,1.0783,1.0785,1.078,1.0777,1.078,1.078,1.078,1.078,1.078,1.078,1.0634,1.0643,1.0649,1.0663,1.0671,1.0682,1.0688,1.0697,1.0706,1.0721,1.0731,1.0739,1.0751,1.0765,1.0777,1.0781,1.0786,1.0785,1.079,1.0785,1.0785,1.0785,1.0782,1.0786,1.0786,1.0794,1.0794,1.0794]},{"header":{"parameterUnit":"m.s-1","parameterCategory":1,"la1":30.2991,"la2":30.254,"lo1":-89.0895,"lo2":-89.0444,"dy":0.0017,"dx":0.0017,"nx":28,"ny":28,"refTime":"2024-04-13T03:00:00:Z","depth":0,"parameterNumber":3,"parameterNumberName":"V-component_of_WINDS"},"data":[0,0,0,0,0,0,0,0,0,0,0,0,0,0,0,0,0,0,0,0,0,0,0,0,0,0,0,0,0,0,0,0,0,0,0,0,0,0,0,0,0,0,0,0,0,0,0,0,0,0,0,0,0,0,0,0,0,0,-1.3744,-1.3744,0,-1.3766,-1.3766,-1.3767,-1.3778,-1.3778,-1.3778,-1.3778,-1.38,-1.3801,-1.3802,0,0,0,0,0,0,0,0,0,0,0,0,0,-1.371,-1.371,-1.3744,-1.3744,-1.3744,-1.3766,-1.3766,-1.3767,-1.3778,-1.3778,-1.3778,-1.3778,-1.38,-1.3801,-1.3802,0,0,0,0,0,0,0,0,0,0,0,0,0,-1.3727,-1.371,-1.3744,-1.3753,-1.3754,-1.3766,-1.3766,-1.3767,-1.3778,-1.3778,-1.3778,-1.3778,-1.38,-1.3801,-1.3802,-1.3806,0,0,-1.3804,-1.3805,0,0,0,0,0,0,0,0,-1.3726,-1.3729,-1.3751,-1.3752,-1.3753,-1.377,-1.3762,-1.378,-1.3778,-1.3769,-1.3778,-1.3778,-1.379,-1.3792,-1.3796,-1.3807,-1.3808,-1.3804,-1.3805,-1.3805,-1.3805,0,0,0,0,0,0,0,-1.3725,-1.3728,-1.3753,-1.3752,-1.3753,-1.3755,-1.3758,-1.3766,-1.3779,-1.377,-1.3771,-1.3773,-1.3791,-1.3795,-1.3796,-1.3809,-1.3804,-1.3805,-1.3806,-1.3806,-1.3823,-1.3823,0,0,0,0,0,0,-1.3723,-1.3727,-1.3752,-1.3753,-1.374,-1.3756,-1.3759,-1.3764,-1.3779,-1.3781,-1.3773,-1.3774,-1.3793,-1.3795,-1.3797,-1.3802,-1.3805,-1.3806,-1.3807,-1.3823,-1.3823,-1.3823,0,0,0,0,0,0,-1.3722,-1.3725,-1.3751,-1.374,-1.3744,-1.3756,-1.3763,-1.3765,-1.3769,-1.3782,-1.3784,-1.3775,-1.3794,-1.3796,-1.3804,-1.3803,-1.3806,-1.3807,-1.3823,-1.3823,-1.3823,-1.3814,0,0,0,0,0,0,-1.3721,-1.3725,-1.3727,-1.374,-1.3744,-1.3758,-1.3763,-1.3765,-1.3771,-1.3772,-1.3784,-1.3786,-1.3794,-1.3802,-1.3804,-1.3805,-1.3808,-1.3823,-1.3823,-1.3823,-1.3814,-1.3813,-1.3813,0,0,0,0,0,-1.372,-1.3724,-1.3727,-1.373,-1.3748,-1.3758,-1.376,-1.3769,-1.3771,-1.3773,-1.378,-1.3786,-1.3803,-1.3803,-1.3806,-1.3806,-1.3823,-1.3823,-1.3823,-1.3814,-1.3813,-1.3813,0,0,0,0,0,0,-1.371,-1.3726,-1.373,-1.3738,-1.3746,-1.376,-1.3763,-1.3768,-1.3776,-1.3776,-1.3786,-1.3789,-1.3795,-1.3802,-1.3801,-1.381,-1.3814,-1.3814,-1.3806,-1.3805,-1.3805,-1.3803,-1.3809,0,0,0,0,0,-1.3709,-1.3717,-1.3729,-1.3736,-1.374,-1.375,-1.3755,-1.3761,-1.377,-1.3773,-1.3782,-1.379,-1.3797,-1.3802,-1.3809,-1.3815,-1.3817,-1.3816,-1.3816,-1.3815,-1.3815,-1.3817,-1.3817,-1.3823,-1.3823,-1.3823,0,0,-1.3707,-1.3717,-1.3721,-1.3734,-1.3741,-1.3748,-1.3753,-1.376,-1.3765,-1.3775,-1.3782,-1.3788,-1.3798,-1.3804,-1.3807,-1.3809,-1.3814,-1.3815,-1.3814,-1.3815,-1.3817,-1.3816,-1.3816,-1.3823,-1.3823,-1.3823,0,0,-1.3707,-1.3715,-1.372,-1.3727,-1.3738,-1.3744,-1.3746,-1.3758,-1.3762,-1.377,-1.3776,-1.3782,-1.3794,-1.38,-1.3805,-1.3805,-1.381,-1.3807,-1.3803,-1.3805,-1.3804,-1.3804,-1.3803,-1.3802,-1.3807,-1.3807,-1.3807,0,-1.3703,-1.3714,-1.3723,-1.3729,-1.3734,-1.3742,-1.3747,-1.3753,-1.3766,-1.3769,-1.3771,-1.3785,-1.3792,-1.38,-1.3799,-1.3803,-1.3804,-1.3806,-1.3804,-1.3804,-1.3803,-1.3802,-1.3802,-1.3806,-1.3806,-1.3807,-1.3807,0,-1.3708,-1.3715,-1.3718,-1.3729,-1.3734,-1.374,-1.3749,-1.3753,-1.3758,-1.3764,-1.3771,-1.378,-1.3788,-1.379,-1.3795,-1.3798,-1.3798,-1.3802,-1.3806,-1.3802,-1.3801,-1.3801,-1.3806,-1.3806,-1.3806,-1.3806,0,0,-1.3703,-1.3718,-1.3719,-1.3723,-1.3735,-1.374,-1.3745,-1.3753,-1.3756,-1.3764,-1.3768,-1.3777,-1.378,-1.3785,-1.3791,-1.3793,-1.379,-1.3796,-1.3796,-1.3794,-1.3792,-1.3789,-1.3788,-1.3794,-1.3794,-1.3794,-1.3791,0,-1.3704,-1.3714,-1.3721,-1.3728,-1.3734,-1.3741,-1.3745,-1.3752,-1.3758,-1.3763,-1.3769,-1.3775,-1.3779,-1.3782,-1.3784,-1.379,-1.379,-1.3791,-1.3796,-1.3797,-1.3793,-1.3788,-1.3785,-1.3782,-1.3791,-1.379,-1.379,0,-1.3706,-1.3713,-1.372,-1.3729,-1.3732,-1.3736,-1.3743,-1.3748,-1.3755,-1.3759,-1.3764,-1.377,-1.3774,-1.3777,-1.3783,-1.3783,-1.3786,-1.3789,-1.3789,-1.379,-1.3793,-1.3788,-1.3781,-1.3781,-1.379,-1.379,-1.379,0,-1.3701,-1.3712,-1.3717,-1.3721,-1.3732,-1.3734,-1.3739,-1.3746,-1.375,-1.3756,-1.3758,-1.3765,-1.3768,-1.3773,-1.378,-1.3781,-1.3784,-1.3788,-1.3787,-1.3787,-1.3787,-1.3787,-1.378,-1.379,-1.379,-1.379,-1.379,0,-1.3701,-1.3704,-1.3715,-1.3718,-1.3722,-1.373,-1.3734,-1.3739,-1.3745,-1.3749,-1.3755,-1.3759,-1.3768,-1.3772,-1.3777,-1.378,-1.3782,-1.3784,-1.3786,-1.3783,-1.3783,-1.3785,-1.3785,-1.379,-1.379,-1.379,-1.379,0,-1.3696,-1.3703,-1.3709,-1.3718,-1.3721,-1.3723,-1.3731,-1.3734,-1.3739,-1.3744,-1.3745,-1.3753,-1.3758,-1.3765,-1.3773,-1.3776,-1.3778,-1.378,-1.3776,-1.3776,-1.3774,-1.3774,-1.3768,-1.3768,-1.3778,-1.3778,-1.3778,0,-1.3695,-1.3698,-1.3707,-1.371,-1.3714,-1.3719,-1.3723,-1.373,-1.3733,-1.3741,-1.3742,-1.3748,-1.3752,-1.376,-1.3766,-1.3771,-1.3773,-1.3771,-1.3774,-1.3771,-1.3772,-1.3771,-1.3771,-1.377,-1.377,-1.377,-1.377,0,-1.3692,-1.3695,-1.37,-1.3706,-1.371,-1.3715,-1.372,-1.3722,-1.373,-1.3733,-1.3738,-1.3742,-1.3748,-1.3753,-1.3759,-1.3763,-1.3767,-1.3768,-1.3768,-1.3766,-1.3763,-1.3763,-1.3773,-1.3769,-1.3769,-1.3769,-1.3769,-1.3769,-1.3689,-1.3691,-1.3698,-1.3703,-1.3707,-1.3711,-1.3714,-1.3719,-1.3723,-1.3729,-1.3733,-1.3737,-1.3743,-1.3751,-1.3754,-1.3757,-1.3759,-1.3759,-1.3759,-1.3759,-1.3758,-1.3762,-1.3758,-1.3758,-1.3759,-1.3759,-1.3759,0,-1.3686,-1.369,-1.3694,-1.3701,-1.3704,-1.3708,-1.3713,-1.3716,-1.3719,-1.3724,-1.3728,-1.3733,-1.3737,-1.3743,-1.3748,-1.3749,-1.375,-1.3749,-1.3749,-1.375,-1.3756,-1.3755,-1.3748,-1.3748,-1.3748,-1.3748,-1.3748,-1.3748,-1.3685,-1.3689,-1.3692,-1.3697,-1.3701,-1.3705,-1.3708,-1.3711,-1.3715,-1.372,-1.3723,-1.3727,-1.3732,-1.3736,-1.374,-1.3742,-1.3742,-1.3741,-1.3743,-1.3748,-1.3749,-1.375,-1.375,-1.3741,-1.3741,-1.3736,-1.3736,-1.3736]}]]